Simultaneous Nadir Overpasses (SNOs) Predictions

Prediction of SNOs between GOES-15 and METOP-A Satellite Orbit:

Table of predicted SNOs for the next 14.0 days since TLE Epoch: 9/16/2016
Index Date Time (GOES-15) GOES-15 Lat,Lon METOP-A Lat,Lon Distance(km) Time Diff (sec)
1 09/17/2016 18:31:50 -0.27,-135.49 -0.15,-136.05 63.77 80
2 09/20/2016 06:30:11 0.27,-135.44 0.21,-135.65 23.66 80
3 09/22/2016 18:31:04 -0.28,-135.47 -0.33,-135.22 28.90 80
4 09/25/2016 06:29:25 0.28,-135.41 0.39,-134.81 67.78 80
5 09/26/2016 18:45:38 -0.29,-135.43 0.57,-139.38 449.97 80
6 09/27/2016 18:27:39 -0.28,-135.42 -0.52,-134.38 118.52 80
7 09/29/2016 06:46:39 0.30,-135.37 -0.51,-138.97 410.88 80
8 09/30/2016 06:26:00 0.29,-135.35 0.59,-133.97 156.97 80
